Regional Weather Roundup
Issued by NWS

Home | Current Version | Previous Version | Text Only | Print | Product List | Glossary Off
Versions: 1 2 3 4 5 6 7 8 9 10 11 12 13 14 15 16 17 18 19 20 21 22 23 24 25 26 27 28 29 30 31 32 33 34 35 36 37 38 39 40 41 42 43 44 45 46 47 48 49 50

000
ASUS43 KFSD 282302
RWRSD

WEATHER ROUNDUP FOR SOUTH DAKOTA
NATIONAL WEATHER SERVICE SIOUX FALLS SD
600 PM CDT TUE JUL 28 2015

NOTE: "FAIR" INDICATES FEW OR NO CLOUDS BELOW 12,000 FEET WITH NO
SIGNIFICANT WEATHER AND/OR OBSTRUCTIONS TO VISIBILITY.


SDZ001>005-009-010-012>017-290000-
NORTHWEST AND NORTH CENTRAL SOUTH DAKOTA

CITY           SKY/WX    TMP DP  RH WIND       PRES   REMARKS
BUFFALO          N/A     71  41  33 W47G58    29.97R
FAITH            N/A     75  40  28 W31G41    29.99R
MOBRIDGE       MOSUNNY   76  49  38 W31G41    29.88R
$$

SDZ012>016-024>037-041>051-057-063-072>074-290000-
SOUTHWEST AND SOUTH CENTRAL SOUTH DAKOTA

CITY           SKY/WX    TMP DP  RH WIND       PRES   REMARKS
RAPID CTY ARPT MOSUNNY   77  41  27 W20G29    30.06R
PIERRE         MOSUNNY   82  43  25 W24G35    29.94R
CUSTER         SUNNY     66  33  29 NW16G28   30.18R
ELLSWORTH AFB  MOSUNNY   76  41  27 NW20G26   30.05R
PHILIP         SUNNY     80  45  28 NW22G31   29.99S
PINE RIDGE     SUNNY     80  33  18 NW15G25   30.07R
WINNER         FAIR      83  46  27 W16G23    29.99S
$$

SDZ004>011-016>023-039-040-290000-
NORTHEAST SOUTH DAKOTA

CITY           SKY/WX    TMP DP  RH WIND       PRES   REMARKS
ABERDEEN       MOSUNNY   80  49  33 W23G37    29.86R
WATERTOWN      SUNNY     78  53  41 W22G30    29.88S
BROOKINGS      SUNNY     77  57  50 W17G25    29.92R
SISSETON         N/A     79  52  38 W18G36    29.81S
$$

SDZ017-020-022-023-036>040-048>070-290000-
SOUTHEAST SOUTH DAKOTA

CITY           SKY/WX    TMP DP  RH WIND       PRES   REMARKS
SIOUX FALLS    MOSUNNY   79  57  46 W14G20    29.93R
HURON          SUNNY     80  51  36 W15G28    29.90S
CHAMBERLAIN    SUNNY     81  46  29 W18G29    29.96S
MITCHELL       SUNNY     81  52  36 W13       29.94R
YANKTON        SUNNY     81  57  44 MISG      29.94S
$$

ABBREVIATIONS USED IN REMARKS
   TC - TEMPERATURE IN CELSIUS
  WCI - WIND CHILL INDEX
   HX - HEAT INDEX
  VSB - VISIBILITY




USA.gov is the U.S. government's official web portal to all federal, state and local government web resources and services.